Terug naar catalogus

SL-8 R/B

ActiefPO
NORAD 23093·ROCKET BODY·🇷🇺 Russia

Gelanceerd Apr 26, 1994 vanaf Plesetsk Cosmodrome

Loading…

Volgende Passages (komende 24 uur)

TLE

VersSource: Space-Track

Epoch: Sep 14, 2026, 14:11 UTC

1 23093U 94024B   26257.59162839  .00000114  00000-0  98251-4 0  9996
2 23093  82.9439 122.1173 0008756 257.3628 102.6551 13.78266315 96186

Volg SL-8 R/B in realtime met AllMySat

Download on the App Store